[[{"header":{"parameterUnit":"m.s-1","parameterCategory":1,"la1":30.2991,"la2":30.254,"lo1":-89.0895,"lo2":-89.0444,"dy":0.0017,"dx":0.0017,"nx":28,"ny":28,"refTime":"2026-02-10T03:00:00:Z","depth":0,"parameterNumber":2,"parameterNumberName":"U-component_of_WINDS"},"data":[0,0,0,0,0,0,0,0,0,0,0,0,0,0,0,0,0,0,0,0,0,0,0,0,0,0,0,0,0,0,0,0,0,0,0,0,0,0,0,0,0,0,0,0,0,0,0,0,0,0,0,0,0,0,0,0,0,0,2.0958,2.0958,0,2.0955,2.0955,2.0955,2.0946,2.0946,2.0946,2.0945,2.0944,2.0944,2.0944,0,0,0,0,0,0,0,0,0,0,0,0,0,2.0958,2.0958,2.0958,2.0958,2.0958,2.0955,2.0955,2.0955,2.0946,2.0946,2.0946,2.0945,2.0944,2.0944,2.0944,0,0,0,0,0,0,0,0,0,0,0,0,0,2.0957,2.0958,2.0958,2.0953,2.0952,2.0955,2.0955,2.0955,2.0946,2.0946,2.0946,2.0945,2.0944,2.0944,2.0944,2.0952,0,0,2.0945,2.0945,0,0,0,0,0,0,0,0,2.0957,2.0957,2.0954,2.0953,2.0953,2.0951,2.0955,2.0954,2.0946,2.0949,2.0945,2.0945,2.0947,2.0947,2.0947,2.0952,2.0952,2.0945,2.0945,2.0945,2.0946,0,0,0,0,0,0,0,2.0957,2.0957,2.0957,2.0954,2.0953,2.0952,2.0951,2.0955,2.0949,2.0948,2.0948,2.0947,2.0946,2.0947,2.0947,2.0952,2.0945,2.0945,2.0946,2.0946,2.0967,2.0968,0,0,0,0,0,0,2.0958,2.0957,2.0957,2.0957,2.0954,2.0952,2.0952,2.0952,2.0949,2.0949,2.0948,2.0947,2.0946,2.0947,2.0947,2.0957,2.0945,2.0946,2.0946,2.0967,2.0967,2.0968,0,0,0,0,0,0,2.0958,2.0958,2.0957,2.0957,2.0957,2.0952,2.0953,2.0952,2.0952,2.0949,2.0948,2.0949,2.0946,2.0946,2.0952,2.0957,2.0946,2.0946,2.0966,2.0967,2.0967,2.0978,0,0,0,0,0,0,2.0958,2.0958,2.096,2.0957,2.0957,2.0961,2.0953,2.0952,2.0952,2.0951,2.095,2.0949,2.0946,2.0951,2.0952,2.0957,2.0946,2.0966,2.0966,2.0967,2.0977,2.0979,2.098,0,0,0,0,0,2.0958,2.0962,2.096,2.096,2.0959,2.0961,2.0961,2.0957,2.0953,2.0956,2.0954,2.0949,2.0957,2.0952,2.0952,2.0958,2.0965,2.0966,2.0967,2.0976,2.0978,2.098,0,0,0,0,0,0,2.0965,2.0962,2.0959,2.0962,2.0962,2.096,2.0962,2.0959,2.096,2.0959,2.0955,2.0954,2.0961,2.096,2.0955,2.0967,2.096,2.0961,2.0967,2.0969,2.0971,2.0971,2.0946,0,0,0,0,0,2.0967,2.0969,2.0966,2.097,2.097,2.0966,2.0967,2.0964,2.0964,2.0964,2.0963,2.0963,2.0966,2.0967,2.097,2.0977,2.0978,2.0982,2.0983,2.0985,2.0986,2.0992,2.0994,2.0971,2.0971,2.0971,0,0,2.0972,2.097,2.0971,2.0971,2.0971,2.0974,2.0966,2.0969,2.0971,2.0964,2.0969,2.0969,2.0969,2.0977,2.098,2.0976,2.0993,2.0986,2.0987,2.0987,2.0993,2.0996,2.0998,2.0971,2.0971,2.0971,0,0,2.0981,2.0979,2.0983,2.0983,2.0983,2.0981,2.0982,2.0981,2.098,2.0986,2.0981,2.0985,2.0989,2.099,2.0991,2.1005,2.1001,2.1006,2.1014,2.1021,2.1022,2.1024,2.103,2.1032,2.1007,2.1007,2.1007,0,2.0986,2.0989,2.0986,2.0989,2.099,2.0985,2.099,2.0991,2.0991,2.0993,2.0989,2.0996,2.0996,2.1004,2.1008,2.1008,2.1011,2.1005,2.1022,2.1024,2.1026,2.1031,2.1034,2.1007,2.1007,2.1007,2.1007,0,2.0997,2.1,2.1003,2.1004,2.1006,2.101,2.1008,2.1011,2.1009,2.1008,2.1015,2.1015,2.1018,2.102,2.1017,2.1029,2.1027,2.1023,2.1016,2.1028,2.1034,2.1036,2.1008,2.1008,2.1008,2.1008,0,0,2.1008,2.101,2.1011,2.1013,2.1014,2.1016,2.1021,2.1025,2.1028,2.1029,2.1034,2.104,2.1037,2.1038,2.1036,2.1042,2.1055,2.1037,2.1037,2.1042,2.107,2.1073,2.1075,2.1053,2.1053,2.1054,2.107,0,2.1018,2.1026,2.1024,2.1033,2.1037,2.1033,2.1038,2.104,2.1041,2.1045,2.1045,2.105,2.1045,2.1046,2.1051,2.1052,2.1061,2.1051,2.1059,2.1059,2.1059,2.1078,2.1081,2.1096,2.1072,2.1072,2.1073,0,2.1029,2.1032,2.1041,2.1044,2.1046,2.105,2.1054,2.1058,2.1061,2.1061,2.1065,2.1063,2.107,2.1064,2.1074,2.1068,2.1072,2.1073,2.1074,2.1074,2.1066,2.108,2.1101,2.1103,2.1076,2.1076,2.1075,0,2.1038,2.1045,2.1051,2.1053,2.1056,2.1059,2.1061,2.1064,2.1067,2.1071,2.1074,2.1079,2.1082,2.1087,2.1087,2.1082,2.1099,2.1092,2.11,2.11,2.1103,2.1103,2.1125,2.1105,2.1105,2.1105,2.1105,0,2.1049,2.1055,2.1056,2.106,2.1067,2.1066,2.1074,2.1076,2.1079,2.1084,2.1082,2.1088,2.1088,2.1094,2.1095,2.1105,2.1106,2.1107,2.1107,2.1107,2.1107,2.1109,2.1108,2.1106,2.1106,2.1106,2.1105,0,2.1059,2.106,2.1067,2.1071,2.1072,2.1077,2.1081,2.1086,2.1087,2.1094,2.1096,2.1098,2.1106,2.1107,2.1115,2.1116,2.1128,2.1127,2.1127,2.1127,2.1136,2.1135,2.116,2.1164,2.1141,2.1141,2.1142,0,2.1066,2.1071,2.1075,2.1079,2.1081,2.1087,2.109,2.1091,2.1095,2.1101,2.1106,2.1113,2.1119,2.1132,2.1134,2.1142,2.1141,2.115,2.1142,2.1143,2.1142,2.1142,2.1143,2.1151,2.1151,2.1151,2.1151,0,2.1078,2.1079,2.1084,2.109,2.1095,2.1099,2.1104,2.1107,2.1109,2.1114,2.1122,2.1127,2.1137,2.1145,2.1153,2.1156,2.1155,2.1154,2.1157,2.1157,2.1157,2.1158,2.1131,2.1153,2.1153,2.1153,2.1153,2.1153,2.1087,2.1092,2.1097,2.1103,2.1107,2.1112,2.1118,2.1121,2.1127,2.1135,2.1136,2.1145,2.1151,2.1162,2.1166,2.1174,2.1171,2.1174,2.1175,2.1176,2.1177,2.1156,2.1175,2.1175,2.1175,2.1175,2.1175,0,2.11,2.1103,2.111,2.1117,2.1123,2.1121,2.1127,2.1133,2.1141,2.1146,2.1153,2.1163,2.1172,2.1177,2.1186,2.1192,2.1192,2.1194,2.1194,2.1195,2.1179,2.1176,2.1195,2.1195,2.1195,2.1195,2.1195,2.1195,2.1107,2.1116,2.1118,2.113,2.1134,2.1142,2.1146,2.1152,2.1157,2.1169,2.1176,2.1179,2.1185,2.1196,2.1204,2.1206,2.1209,2.1213,2.1214,2.1198,2.1196,2.1194,2.1192,2.1213,2.1213,2.123,2.123,2.123]},{"header":{"parameterUnit":"m.s-1","parameterCategory":1,"la1":30.2991,"la2":30.254,"lo1":-89.0895,"lo2":-89.0444,"dy":0.0017,"dx":0.0017,"nx":28,"ny":28,"refTime":"2026-02-10T03:00:00:Z","depth":0,"parameterNumber":3,"parameterNumberName":"V-component_of_WINDS"},"data":[0,0,0,0,0,0,0,0,0,0,0,0,0,0,0,0,0,0,0,0,0,0,0,0,0,0,0,0,0,0,0,0,0,0,0,0,0,0,0,0,0,0,0,0,0,0,0,0,0,0,0,0,0,0,0,0,0,0,1.1932,1.1934,0,1.2102,1.2104,1.2106,1.2132,1.213,1.2129,1.2127,1.23,1.2305,1.2311,0,0,0,0,0,0,0,0,0,0,0,0,0,1.1623,1.1628,1.1932,1.1934,1.1936,1.2102,1.2104,1.2107,1.2132,1.213,1.2128,1.2126,1.2298,1.2305,1.2312,0,0,0,0,0,0,0,0,0,0,0,0,0,1.1771,1.163,1.1932,1.1969,1.1974,1.2101,1.2104,1.2107,1.2132,1.213,1.2128,1.2125,1.2295,1.2304,1.2313,1.2415,0,0,1.234,1.2344,0,0,0,0,0,0,0,0,1.1763,1.1783,1.1961,1.1966,1.1972,1.2093,1.2059,1.221,1.2133,1.2072,1.2127,1.2124,1.2233,1.2247,1.2284,1.2423,1.243,1.2341,1.2347,1.2351,1.2353,0,0,0,0,0,0,0,1.1753,1.1776,1.1999,1.1964,1.1971,1.1975,1.1994,1.2087,1.2163,1.2077,1.2079,1.2099,1.2235,1.2275,1.2288,1.2433,1.2341,1.2349,1.2355,1.2358,1.2657,1.2659,0,0,0,0,0,0,1.1736,1.1767,1.1994,1.2004,1.186,1.1982,1.2003,1.2057,1.2162,1.2176,1.2101,1.21,1.2261,1.2277,1.2294,1.2416,1.2351,1.2359,1.2364,1.2654,1.2657,1.266,0,0,0,0,0,0,1.1729,1.1756,1.1987,1.1886,1.1916,1.199,1.205,1.2061,1.2101,1.218,1.2194,1.2128,1.2259,1.2281,1.2383,1.2422,1.2363,1.2371,1.2651,1.2655,1.2659,1.2663,0,0,0,0,0,0,1.172,1.1754,1.1795,1.1887,1.1921,1.2075,1.2053,1.2066,1.2117,1.2117,1.2209,1.2222,1.2259,1.2369,1.2392,1.2434,1.2378,1.2648,1.2653,1.2657,1.266,1.2667,1.2672,0,0,0,0,0,1.1709,1.179,1.1797,1.1824,1.1975,1.2078,1.2097,1.2139,1.212,1.2161,1.221,1.2219,1.2414,1.238,1.2405,1.245,1.2646,1.2652,1.2657,1.2657,1.2665,1.2672,0,0,0,0,0,0,1.1702,1.1803,1.1812,1.1926,1.1992,1.2082,1.2135,1.2147,1.2221,1.2218,1.2265,1.2286,1.2384,1.2428,1.2387,1.2551,1.2528,1.2539,1.2519,1.2528,1.2534,1.2521,1.2386,0,0,0,0,0,1.1713,1.179,1.1874,1.1966,1.1999,1.2061,1.2107,1.2133,1.2204,1.2233,1.229,1.2358,1.2434,1.2484,1.2558,1.2666,1.2684,1.2709,1.2715,1.272,1.2728,1.2783,1.2794,1.2679,1.2679,1.2678,0,0,1.1739,1.1803,1.1849,1.1966,1.2021,1.2096,1.2085,1.2167,1.2222,1.2245,1.2344,1.2388,1.2466,1.257,1.2618,1.2609,1.2764,1.2727,1.273,1.2737,1.279,1.2801,1.281,1.2682,1.2682,1.2681,0,0,1.1822,1.188,1.1961,1.2015,1.2098,1.2137,1.2156,1.2243,1.2272,1.2372,1.2389,1.2455,1.2586,1.264,1.2684,1.278,1.279,1.2803,1.2836,1.2889,1.2898,1.2906,1.2936,1.2947,1.2812,1.2812,1.2812,0,1.1842,1.1958,1.2,1.208,1.2129,1.2152,1.2231,1.2282,1.2385,1.2417,1.2405,1.2566,1.2621,1.2734,1.2757,1.2794,1.2814,1.2793,1.2893,1.2902,1.291,1.294,1.2951,1.2813,1.2813,1.2813,1.2813,0,1.1977,1.2056,1.2111,1.2208,1.2263,1.2343,1.2394,1.2444,1.2463,1.2503,1.2601,1.2666,1.2752,1.2781,1.2802,1.2896,1.2887,1.2884,1.2862,1.2921,1.2949,1.2962,1.2814,1.2814,1.2814,1.2813,0,0,1.2063,1.2179,1.2198,1.224,1.233,1.2391,1.2469,1.2553,1.2593,1.2662,1.2726,1.2833,1.2829,1.2879,1.2905,1.2951,1.3018,1.2941,1.2944,1.295,1.312,1.3121,1.3134,1.3024,1.3026,1.3028,1.3112,0,1.2155,1.2296,1.2333,1.2452,1.2523,1.2543,1.261,1.267,1.2708,1.2772,1.2814,1.2888,1.2878,1.2908,1.2954,1.3,1.3052,1.2994,1.3081,1.3084,1.306,1.3149,1.3152,1.3228,1.3124,1.3126,1.3128,0,1.2282,1.2351,1.2476,1.2552,1.2583,1.2643,1.2719,1.2781,1.2849,1.2872,1.2925,1.2946,1.3024,1.2997,1.3103,1.3063,1.31,1.3127,1.3131,1.3139,1.3109,1.3158,1.3254,1.3264,1.3146,1.3145,1.3143,0,1.2327,1.2452,1.2542,1.2577,1.2669,1.271,1.275,1.2815,1.2861,1.2927,1.2956,1.303,1.3071,1.3126,1.3164,1.3142,1.3265,1.3243,1.3284,1.3283,1.3309,1.3307,1.341,1.3336,1.3336,1.3336,1.3336,0,1.2425,1.25,1.2563,1.2618,1.2701,1.2741,1.2821,1.2861,1.2918,1.2979,1.3,1.3056,1.3105,1.3166,1.3196,1.3276,1.3295,1.3314,1.3321,1.3312,1.3309,1.3336,1.3331,1.3339,1.3338,1.3338,1.3337,0,1.2491,1.2537,1.2635,1.2712,1.2733,1.279,1.2855,1.2907,1.2944,1.302,1.304,1.3097,1.317,1.3213,1.3306,1.3326,1.3414,1.342,1.3391,1.3394,1.3431,1.3426,1.3555,1.3572,1.3488,1.3489,1.3489,0,1.2549,1.2607,1.2689,1.2731,1.2771,1.2839,1.2885,1.2925,1.2971,1.3049,1.3091,1.3165,1.3226,1.3341,1.3389,1.3459,1.3465,1.3505,1.3476,1.3462,1.3462,1.3457,1.3461,1.3509,1.351,1.3511,1.3511,0,1.2647,1.2665,1.2731,1.2803,1.2857,1.2916,1.2974,1.3007,1.3056,1.3107,1.3181,1.3228,1.3321,1.3392,1.3465,1.3503,1.3514,1.352,1.3532,1.3523,1.3502,1.351,1.3402,1.3517,1.3516,1.3516,1.3516,1.3515,1.2709,1.2759,1.2823,1.2894,1.2941,1.2994,1.3046,1.3087,1.315,1.3229,1.3248,1.3324,1.3385,1.3483,1.3522,1.3581,1.3574,1.3594,1.3598,1.3602,1.3601,1.3494,1.3595,1.3594,1.3594,1.3594,1.3594,0,1.2804,1.2846,1.291,1.299,1.3044,1.305,1.3113,1.3158,1.3225,1.3281,1.334,1.3422,1.349,1.3542,1.3611,1.3648,1.3654,1.3664,1.3661,1.3669,1.3605,1.3585,1.3657,1.3657,1.3657,1.3657,1.3657,1.3657,1.2861,1.2944,1.2969,1.3074,1.3115,1.319,1.3225,1.3272,1.3316,1.3407,1.3464,1.3497,1.355,1.3622,1.3683,1.3696,1.3719,1.3728,1.3741,1.3681,1.3674,1.3667,1.3649,1.3733,1.3733,1.38,1.3801,1.3801]}]]